Location: Ferintosh
(52.7647°N, 112.9692°W)
Time: 02:34:55
(UTC+00:00)

S-56A Canister/Altair - Pass Details

Date: 22 May 2024
Orbit: 637 x 2489 km, 38.9° (Epoch: 20 June)

Event Time Altitude Azimuth Distance (km) Brightness Sun altitude
Rises 19:12:23 0° 266° (W) 4,414 11.4 57.7°
Reaches altitude 10° 19:18:04 10° 237° (WSW) 2,951 10.9 57.8°
Maximum altitude 19:20:15 12° 219° (SW) 2,653 10.8 57.8°
Drops below altitude 10° 19:22:15 10° 200° (SSW) 2,612 10.9 57.8°
Sets 19:26:24 0° 167° (SSE) 3,247 11.2 57.8°
